TimeEDT,TemperatureF,Dew PointF,Humidity,Sea Level PressureIn,VisibilityMPH,Wind Direction,Wind SpeedMPH,Gust SpeedMPH,PrecipitationIn,Events,Conditions,WindDirDegrees,DateUTC
12:53 AM,63.0,63.0,100,29.86,9.0,Calm,Calm,-,N/A,,Clear,0,2013-09-23 04:53:00
1:53 AM,62.1,62.1,100,29.86,9.0,Calm,Calm,-,N/A,,Clear,0,2013-09-23 05:53:00
2:45 AM,60.8,60.8,100,29.89,2.0,Calm,Calm,-,N/A,,Clear,0,2013-09-23 06:45:00
2:53 AM,61.0,61.0,100,29.88,10.0,Calm,Calm,-,N/A,,Clear,0,2013-09-23 06:53:00
3:53 AM,60.1,60.1,100,29.87,1.5,Calm,Calm,-,N/A,,Clear,0,2013-09-23 07:53:00
4:02 AM,60.8,60.8,100,29.88,3.0,Calm,Calm,-,N/A,,Clear,0,2013-09-23 08:02:00
4:53 AM,57.9,57.9,100,29.89,10.0,Calm,Calm,-,N/A,,Clear,0,2013-09-23 08:53:00
5:53 AM,57.9,57.0,97,29.90,10.0,Calm,Calm,-,N/A,,Clear,0,2013-09-23 09:53:00
6:53 AM,57.0,57.0,100,29.92,9.0,Calm,Calm,-,N/A,,Clear,0,2013-09-23 10:53:00
7:53 AM,57.9,57.9,100,29.95,10.0,Calm,Calm,-,0.01,,Clear,0,2013-09-23 11:53:00
8:53 AM,64.9,62.1,90,29.96,10.0,East,3.5,-,N/A,,Scattered Clouds,100,2013-09-23 12:53:00
9:53 AM,70.0,64.9,84,29.96,10.0,ESE,5.8,-,N/A,,Clear,110,2013-09-23 13:53:00
10:53 AM,75.9,64.9,69,29.97,10.0,East,8.1,-,N/A,,Partly Cloudy,100,2013-09-23 14:53:00
11:53 AM,78.1,64.0,62,29.99,10.0,SE,6.9,-,N/A,,Mostly Cloudy,140,2013-09-23 15:53:00
12:53 PM,79.0,62.1,56,29.98,10.0,East,9.2,-,N/A,,Overcast,100,2013-09-23 16:53:00
1:53 PM,78.1,62.1,58,29.97,10.0,SSE,6.9,17.3,N/A,,Overcast,160,2013-09-23 17:53:00
2:53 PM,78.1,64.0,62,29.95,10.0,ESE,8.1,-,N/A,,Overcast,110,2013-09-23 18:53:00
3:53 PM,77.0,64.0,64,29.95,10.0,ESE,8.1,-,N/A,,Overcast,120,2013-09-23 19:53:00
4:53 PM,75.0,66.0,73,29.95,10.0,SSE,4.6,-,N/A,,Overcast,150,2013-09-23 20:53:00
5:53 PM,75.0,64.9,71,29.94,10.0,SSE,4.6,-,N/A,,Overcast,150,2013-09-23 21:53:00
6:53 PM,73.9,63.0,68,29.96,10.0,SE,6.9,18.4,N/A,,Overcast,130,2013-09-23 22:53:00
7:53 PM,71.1,64.9,81,29.97,10.0,SE,9.2,-,0.00,,Overcast,140,2013-09-23 23:53:00
8:53 PM,70.0,64.9,84,29.99,10.0,SE,5.8,-,0.00,,Overcast,130,2013-09-24 00:53:00
9:53 PM,70.0,64.9,84,29.99,10.0,SE,4.6,-,N/A,,Overcast,130,2013-09-24 01:53:00
10:53 PM,69.1,66.0,90,30.01,10.0,South,6.9,-,0.00,,Overcast,170,2013-09-24 02:53:00
11:53 PM,66.9,66.0,97,30.01,4.0,SE,6.9,-,0.00,,Overcast,140,2013-09-24 03:53:00